Content
SEND FEEDBACK

Daily
Averages
Monthly
Summary
Mexico

LEONA VICARIO, QUINTANA ROO


Home > North America > Mexico > Quintana Roo
Elevation: 26 feet     Latitude: 20 59N     Longitude: 087 12W

WEATHER
 
SELECT A DAY
Number of Records: 167,785;   Date Range: 1/1/95 - 12/19/14
 
SHARE

PRINT THIS DATA

[ ← Previous Day ]
WEATHER ALMANAC - JUNE 17, 2014
[ Next Day → ]
[ °C ]   °F
Weather ElementAverageHighLow
Temperature82.8 °F87.8 °F (1:46 pm)78.8 °F (2:46 am)
Dewpoint75.7 °F77 °F (1:40 am)75.2 °F (4:44 am)
Humidity79.5 %94 % (2:46 am)66 % (1:46 pm)
Barometer30.01 in30.05 in (10:40 am)29.96 in (3:45 am)
Wind Speed7 mph12.7 mph (6:43 pm)
Weather ElementAverage
Visibility7 mi
Wind DirectionENE (63.9 °)

Weather ElementTotal
Precipitation---
Cooling Degree Days18.3 (Base 65)
Growing Degree Days33.3 (Base 50)
Averaged from 23 records on June 17, 2014
WEATHER CONDITIONS BREAKOUT
WIND DIRECTION BREAKOUT
WEATHER BY HOUR - JUNE 17, 2014
[ °C ]   °F
Local TimeTemperatureDewpointHumidityBarometerVisibilityWind DirectionWind SpeedGust SpeedPrecipitationEventsConditions
1:40 AM80.6 °F77.0 °F89 %30.01 in7.0 miENE (70°)5.8 mphScattered Clouds
2:46 AM78.8 °F77.0 °F94 %29.99 in7.0 miCalmScattered Clouds
3:45 AM78.8 °F77.0 °F94 %29.96 in7.0 miCalmScattered Clouds
4:44 AM78.8 °F75.2 °F89 %30.00 in7.0 miENE (70°)3.5 mphScattered Clouds
5:40 AM78.8 °F75.2 °F89 %30.01 in7.0 miNE (50°)3.5 mphScattered Clouds
6:49 AM80.6 °F75.2 °F84 %29.98 in7.0 miEast (90°)3.5 mphPartly Cloudy
7:48 AM84.2 °F75.2 °F74 %30.03 in7.0 miEast (80°)4.6 mphPartly Cloudy
8:44 AM84.2 °F75.2 °F74 %30.03 in7.0 miENE (60°)9.2 mphPartly Cloudy
9:49 AM86.0 °F77.0 °F74 %30.00 in7.0 miENE (60°)8.1 mphScattered Clouds
10:40 AM86.0 °F75.2 °F70 %30.05 in7.0 miENE (60°)8.1 mphMostly Cloudy
11:45 AM86.0 °F75.2 °F70 %30.05 in7.0 miENE (70°)5.8 mphMostly Cloudy
12:50 PM86.0 °F77.0 °F74 %30.01 in7.0 miNE (40°)11.5 mphMostly Cloudy
1:46 PM87.8 °F75.2 °F66 %30.03 in7.0 miENE (70°)10.4 mphMostly Cloudy
2:47 PM87.8 °F75.2 °F66 %30.02 in7.0 miEast (100°)11.5 mphMostly Cloudy
3:41 PM86.0 °F75.2 °F70 %29.99 in7.0 miEast (100°)11.5 mphMostly Cloudy
4:41 PM84.2 °F75.2 °F74 %30.00 in7.0 miENE (60°)10.4 mphMostly Cloudy
5:41 PM84.2 °F75.2 °F74 %30.00 in7.0 miEast (80°)11.5 mphScattered Clouds
6:43 PM82.4 °F75.2 °F79 %29.99 in7.0 miEast (80°)12.7 mphPartly Cloudy
7:41 PM82.4 °F77.0 °F84 %30.01 in7.0 miENE (70°)6.9 mphPartly Cloudy
8:45 PM80.6 °F75.2 °F84 %30.02 in7.0 miNE (50°)4.6 mphPartly Cloudy
9:48 PM80.6 °F75.2 °F84 %30.02 in7.0 miENE (60°)5.8 mphPartly Cloudy
10:47 PM80.6 °F75.2 °F84 %30.03 in7.0 miENE (60°)5.8 mphPartly Cloudy
11:46 PM78.8 °F75.2 °F89 %30.02 in7.0 miEast (90°)5.8 mphClear
Hourly data recorded from MMUN, located miles away from Leona Vicario, Quintana Roo







STORIES FROM OUR PARTNERS